Location: Unspecified
(35.6961°N, 0.0000°E)
Time: 11:41:48
(UTC+00:00)

Explorer 11/Cluster Stage 4 - Pass Details

Date: 28 May 2019
Orbit: 467 x 1260 km, 28.8° (Epoch: 19 June)

Event Time Altitude Azimuth Distance (km) Brightness Sun altitude
Rises 00:52:12 0° 235° (SW) 3,941 - -31.5°
Reaches altitude 10° 00:55:30 10° 227° (SW) 2,865 - -31.3°
Maximum altitude 01:01:30 31° 167° (SSE) 1,541 - -30.9°
Drops below altitude 10° 01:06:30 10° 106° (ESE) 2,367 - -30.6°
Exits shadow 01:06:55 - 104° (ESE) 2,492 9.2 -30.6°
Sets 01:08:59 0° 96° (E) 3,166 9.8 -30.4°
